Starlink 31804

operational
NORAD ID: 59641 Int'l Des: 2024-082 Owner: SPXS Country: US Constellation: starlink
LEOCIRCULAR

About Starlink 31804

Description loading...

Live Position

Loading 3D Globe...

Upcoming Passes

Altitude History

Altitude vs Time

uPlot chart will show altitude changes over time

Two-Line Element Set

1 59641U 24082L 25303.62566833 .00003709 00000-0 14432-3 0 9999
2 59641 43.0006 154.0575 0000944 266.5937 93.4806 15.27559427 84922
Epoch: Oct 30, 2025 • Age: 29 hours

Current Status

Altitude 486.2 km
Velocity 7.63 km/s
Sub-Earth Point 40.01°N, 72.75°W
Launch Date May 3, 2024
Age 1.4 years
Type internet

Technical Details

Classification Payload
Mass 730.00 kg
Dry Mass 700.00 kg
Total Mass 730.00 kg
Length 0.30 m
Diameter 4.10 m
Span 29.00 m
Shape Box + pan
Manufacturer SPXS
Bus Type Starlink V2M
Phase Status In Orbit
Owner/State SPXS/US

Large Constellations

Loading constellations...